Location: Antioch
(38.0049°N, 121.8058°W)
Time: 04:04:14
(UTC+00:00)

Cosmos 1486 Rocket - Pass Details

Date: 11 February 2026
Orbit: 755 x 778 km, 74.1° (Epoch: 7 March)

Event Time Altitude Azimuth Distance (km) Brightness Sun altitude
Exits shadow 13:46:01 - 219° (SW) 2,837 6.6 -15.4°
Reaches altitude 10° 13:47:26 10° 224° (SW) 2,322 6.1 -15.1°
Maximum altitude 13:52:23 40° 294° (WNW) 1,137 4.4 -14.2°
Drops below altitude 10° 13:57:22 10° 3° (N) 2,333 6.5 -13.2°
Sets 13:59:54 0° 11° (N) 3,263 7.3 -12.7°
